Volver al catálogo

STARLINK-5153

ActivoComunicacionesVLEO
NORAD 54088·PAYLOAD·🇺🇸 United States

Lanzado Oct 20, 2022 desde Cape Canaveral Space Force Station

Loading…

Próximos Pases (próximas 24 horas)

TLE

ActualizadoSource: CelesTrak SupGP

Época: Sep 14, 2026, 14:07 UTC

1 54088C 22136AP  26257.58868056  .00613150  00000+0  23012-1 0  2578
2 54088  53.1609 204.7840 0001215  88.2250 196.6802 15.26372050    14

Sigue STARLINK-5153 en tiempo real con AllMySat

Download on the App Store